Location: Black Swamp Observatory
(41.3920°N, 84.1250°W)
Time: 09:45:43
(UTC-04:00)

Amateur Radio Satellites - All Passes

Search period start: 22 October 2014 09:15
Search period end: 23 October 2014 09:15
Location: Black Swamp Observatory, 41.3920°N, 84.1250°W

Satellite Date Start Highest point End Downlink Frequencies (MHz)
Time Altitude Azimuth
JAS-2 22 Oct 09:43:07 09:46:07 13° 308° (NW) 09:49:10 435.800 - 435.900 CW/SSB, 435.910 FM
Saudisat 1A 22 Oct 09:54:26 09:58:39 46° 308° (NW) 10:02:55 436.775 MHz
UKube-1 22 Oct 10:13:00 10:15:15 14° 92° (E) 10:17:31 145.840 MHz, 145.915 MHz
HO-68 22 Oct 10:20:00 10:27:01 53° 101° (E) 10:33:59 435.675 MHz FM
RS-15 22 Oct 10:39:12 10:48:21 30° 256° (WSW) 10:57:50 29.354 - 29.394 USB, Beacon 29.352 USB
PANSAT 22 Oct 10:42:24 10:43:38 11° 175° (S) 10:44:51 not established
FUNcube-1 22 Oct 10:47:58 10:49:44 12° 90° (E) 10:51:30 145.950 - 145.970 MHz USB
MaSat-1 22 Oct 10:54:25 10:57:05 76° 245° (WSW) 10:59:31 437.345 MHz
Oscar 11 22 Oct 10:55:43 10:59:45 38° 98° (E) 11:03:45 145.825 FM, Beacon 2401.500 USB
ZACube-1 22 Oct 11:36:52 11:40:59 44° 99° (E) 11:45:00 437.345 MHz
UKube-1 22 Oct 11:47:29 11:51:45 53° 288° (WNW) 11:56:00 145.840 MHz, 145.915 MHz
HO-68 22 Oct 12:08:15 12:14:24 32° 299° (WNW) 12:20:32 435.675 MHz FM
KITSAT 1 22 Oct 12:10:29 12:15:59 20° 102° (ESE) 12:21:29 435.175 FM
PANSAT 22 Oct 12:22:13 12:22:59 11° 188° (S) 12:23:44 not established
FUNcube-1 22 Oct 12:22:18 12:26:30 55° 287° (WNW) 12:30:36 145.950 - 145.970 MHz USB
Oscar 11 22 Oct 12:32:34 12:35:40 20° 294° (WNW) 12:38:44 145.825 FM, Beacon 2401.500 USB
PCSat 22 Oct 12:42:06 12:44:52 14° 39° (NE) 12:47:37 145.825 MHz
ZACube-1 22 Oct 13:14:20 13:17:00 16° 296° (WNW) 13:19:39 437.345 MHz
Oscar 16 22 Oct 13:14:54 13:18:55 23° 65° (ENE) 13:22:55 437.025 USB, Beacon 2401.1428
SO-50 22 Oct 13:17:00 13:19:13 14° 108° (ESE) 13:21:29 436.795 FM
Uribyol 2 22 Oct 13:30:55 13:33:45 15° 60° (ENE) 13:36:34 436.500 FM
AO-Echo 22 Oct 13:33:09 13:36:10 17° 61° (ENE) 13:39:15 ?
JAS-1B 22 Oct 13:34:03 13:39:10 30° 66° (ENE) 13:44:02 435.800 - 435.900 CW/SSB
ITAMSAT 1 22 Oct 13:36:04 13:39:02 16° 60° (ENE) 13:42:01 435.822 SSB
Sapphire 22 Oct 14:01:05 14:06:17 44° 54° (NE) 14:11:27 437.095 MHz 1200 baud AX-25 AFSK
KITSAT 1 22 Oct 14:02:18 14:10:23 84° 301° (WNW) 14:18:32 435.175 FM
Oscar 19 22 Oct 14:07:28 14:12:35 68° 74° (ENE) 14:17:43 437.125 CW, 437.150 USB
AO-27 22 Oct 14:18:46 14:23:31 37° 68° (ENE) 14:28:18 436.795 MHz FM
PCSat 22 Oct 14:23:51 14:29:17 71° 59° (ENE) 14:34:41 145.825 MHz
ISS 22 Oct 14:47:52 14:51:12 82° 142° (SE) 14:54:33 145.800 FM
Oscar 16 22 Oct 14:53:03 14:57:58 44° 261° (W) 15:02:55 437.025 USB, Beacon 2401.1428
SO-50 22 Oct 14:54:42 14:59:10 66° 305° (NW) 15:03:47 436.795 FM
Oscar 10/S400 22 Oct 14:55:02 15:12:35 40° 154° (SSE) 15:36:51 145.825 - 145.975 CW/USB, Beacon 145.810 USB
UOSAT-12 22 Oct 14:55:39 14:57:40 13° 107° (ESE) 14:59:42 437.025 FM, 437.400 FM
Uribyol 2 22 Oct 15:07:21 15:12:33 76° 257° (WSW) 15:17:49 436.500 FM
AO-Echo 22 Oct 15:09:37 15:14:23 61° 259° (W) 15:19:21 ?
ITAMSAT 1 22 Oct 15:12:42 15:17:54 73° 257° (WSW) 15:23:08 435.822 SSB
Gurwin Techsat 1B 22 Oct 15:16:48 15:22:03 65° 73° (ENE) 15:27:19 435.225 FM
JAS-1B 22 Oct 15:24:14 15:29:48 36° 262° (W) 15:35:01 435.800 - 435.900 CW/SSB
TMSAT-1 22 Oct 15:29:49 15:35:02 63° 73° (ENE) 15:40:18 436.925 FM
AO-7 22 Oct 15:33:29 15:40:24 31° 57° (ENE) 15:47:19 29.400 - 29.500 MHz
Sapphire 22 Oct 15:44:58 15:49:28 27° 252° (WSW) 15:53:56 437.095 MHz 1200 baud AX-25 AFSK
Oscar 19 22 Oct 15:49:42 15:52:24 14° 270° (W) 15:55:06 437.125 CW, 437.150 USB
AO-27 22 Oct 15:58:42 16:03:05 27° 265° (W) 16:07:30 436.795 MHz FM
KITSAT 1 22 Oct 16:00:43 16:07:01 24° 324° (NW) 16:13:21 435.175 FM
PCSat 22 Oct 16:08:56 16:12:03 16° 256° (WSW) 16:15:10 145.825 MHz
ISS 22 Oct 16:25:35 16:28:14 21° 341° (NNW) 16:30:53 145.800 FM
JAS-2 22 Oct 16:27:18 16:29:19 12° 51° (NE) 16:31:23 435.800 - 435.900 CW/SSB, 435.910 FM
UOSAT-12 22 Oct 16:32:32 16:37:10 74° 304° (NW) 16:41:54 437.025 FM, 437.400 FM
SO-50 22 Oct 16:38:55 16:40:40 12° 326° (NW) 16:42:26 436.795 FM
Saudisat 1A 22 Oct 16:42:04 16:45:19 20° 43° (NE) 16:48:33 436.775 MHz
Uosat F 22 Oct 16:52:00 16:56:55 57° 72° (ENE) 17:01:52 435.120 FM
Gurwin Techsat 1B 22 Oct 16:59:20 17:02:28 16° 270° (W) 17:05:36 435.225 FM
TMSAT-1 22 Oct 17:12:11 17:15:23 16° 269° (W) 17:18:37 436.925 FM
AO-7 22 Oct 17:24:28 17:32:38 64° 256° (WSW) 17:40:52 29.400 - 29.500 MHz
KITSAT 1 22 Oct 18:03:57 18:06:06 11° 353° (N) 18:08:15 435.175 FM
ISS 22 Oct 18:03:58 18:05:52 14° 2° (N) 18:07:46 145.800 FM
JAS-2 22 Oct 18:07:10 18:12:54 68° 72° (ENE) 18:19:28 435.800 - 435.900 CW/SSB, 435.910 FM
Hamsat 22 Oct 18:08:34 18:12:30 40° 72° (ENE) 18:16:27 145.90 MHz
UOSAT-12 22 Oct 18:15:51 18:18:09 13° 324° (NW) 18:20:28 437.025 FM, 437.400 FM
Saudisat 1A 22 Oct 18:20:53 18:25:13 56° 241° (WSW) 18:29:32 436.775 MHz
OPAL 22 Oct 18:24:41 18:29:16 36° 100° (E) 18:33:48 ?
Uosat F 22 Oct 18:32:56 18:36:03 16° 268° (W) 18:39:12 435.120 FM
AO-7 22 Oct 19:26:19 19:26:58 10° 274° (W) 19:27:37 29.400 - 29.500 MHz
AO-40 22 Oct 19:27:42 01:31:21 44° 182° (S) 06:00:29 Beacon 2401.320
SO-67 22 Oct 19:32:32 19:35:47 41° 74° (ENE) 19:39:03 435.3500 MHz FM
ISS 22 Oct 19:40:34 19:43:26 25° 22° (NNE) 19:46:17 145.800 FM
Hamsat 22 Oct 19:45:54 19:48:37 17° 268° (W) 19:51:21 145.90 MHz
JAS-2 22 Oct 19:54:53 19:58:46 18° 273° (W) 20:02:56 435.800 - 435.900 CW/SSB, 435.910 FM
KITSAT 1 22 Oct 20:01:02 20:05:47 16° 25° (NNE) 20:10:31 435.175 FM
OPAL 22 Oct 20:03:52 20:07:59 27° 296° (WNW) 20:12:04 ?
STRAND 1 22 Oct 20:04:50 20:09:45 43° 99° (E) 20:14:37 ?
HO-68 22 Oct 20:48:42 20:55:14 40° 64° (ENE) 21:01:48 435.675 MHz FM
SO-67 22 Oct 21:08:15 21:08:59 11° 269° (W) 21:09:42 435.3500 MHz FM
UKube-1 22 Oct 21:09:11 21:11:19 14° 62° (ENE) 21:13:26 145.840 MHz, 145.915 MHz
ISS 22 Oct 21:17:02 21:20:19 55° 220° (SW) 21:23:35 145.800 FM
STRAND 1 22 Oct 21:44:36 21:48:39 24° 296° (WNW) 21:52:42 ?
FUNcube-1 22 Oct 21:44:47 21:46:45 13° 62° (ENE) 21:48:42 145.950 - 145.970 MHz USB
SO-50 22 Oct 21:46:30 21:49:52 19° 41° (NE) 21:53:17 436.795 FM
Oscar 11 22 Oct 21:50:55 21:54:43 31° 70° (ENE) 21:58:31 145.825 FM, Beacon 2401.500 USB
KITSAT 1 22 Oct 21:55:37 22:03:26 49° 51° (NE) 22:11:11 435.175 FM
ZACube-1 22 Oct 22:33:00 22:37:16 39° 71° (ENE) 22:41:30 437.345 MHz
HO-68 22 Oct 22:36:15 22:42:53 40° 262° (W) 22:49:35 435.675 MHz FM
UKube-1 22 Oct 22:42:41 22:46:59 61° 258° (WSW) 22:51:19 145.840 MHz, 145.915 MHz
RS-15 22 Oct 22:49:38 22:59:55 48° 110° (ESE) 23:10:06 29.354 - 29.394 USB, Beacon 29.352 USB
FUNcube-1 22 Oct 23:17:57 23:22:33 71° 258° (WSW) 23:27:06 145.950 - 145.970 MHz USB
UOSAT-12 22 Oct 23:23:11 23:26:08 16° 39° (NE) 23:29:03 437.025 FM, 437.400 FM
SO-50 22 Oct 23:26:07 23:30:58 74° 239° (WSW) 23:35:50 436.795 FM
Oscar 11 22 Oct 23:27:26 23:30:54 23° 265° (W) 23:34:23 145.825 FM, Beacon 2401.500 USB
KITSAT 1 22 Oct 23:51:19 23:58:40 40° 251° (WSW) 00:06:00 435.175 FM
ZACube-1 23 Oct 00:10:18 00:13:46 21° 267° (W) 00:17:13 437.345 MHz
MaSat-1 23 Oct 00:31:23 00:35:04 29° 110° (ESE) 00:38:29 437.345 MHz
RS-15 23 Oct 01:01:31 01:12:08 53° 313° (NW) 01:22:49 29.354 - 29.394 USB, Beacon 29.352 USB
UOSAT-12 23 Oct 01:02:10 01:06:55 85° 238° (WSW) 01:11:34 437.025 FM, 437.400 FM
MaSat-1 23 Oct 02:07:21 02:10:45 24° 303° (WNW) 02:13:53 437.345 MHz
Oscar 19 23 Oct 02:19:42 02:23:47 24° 94° (E) 02:27:50 437.125 CW, 437.150 USB
AO-27 23 Oct 02:33:31 02:35:47 13° 89° (E) 02:38:02 436.795 MHz FM
Oscar 16 23 Oct 03:04:22 03:09:29 65° 102° (ESE) 03:14:33 437.025 USB, Beacon 2401.1428
JAS-1B 23 Oct 03:05:17 03:11:46 56° 102° (ESE) 03:19:27 435.800 - 435.900 CW/SSB
AO-Echo 23 Oct 03:16:30 03:21:35 45° 99° (E) 03:26:39 ?
RS-15 23 Oct 03:19:44 03:27:51 23° 345° (NNW) 03:36:05 29.354 - 29.394 USB, Beacon 29.352 USB
Uribyol 2 23 Oct 03:20:18 03:25:09 38° 98° (E) 03:29:57 436.500 FM
ITAMSAT 1 23 Oct 03:25:44 03:30:39 40° 98° (E) 03:35:32 435.822 SSB
Gurwin Techsat 1B 23 Oct 03:33:32 03:37:56 26° 94° (E) 03:42:17 435.225 FM
TMSAT-1 23 Oct 03:46:12 03:50:32 25° 94° (E) 03:54:49 436.925 FM
Oscar 19 23 Oct 03:58:28 04:03:15 41° 290° (WNW) 04:08:01 437.125 CW, 437.150 USB
AO-27 23 Oct 04:10:37 04:15:52 77° 286° (WNW) 04:21:04 436.795 MHz FM
Sapphire 23 Oct 04:43:07 04:48:05 38° 111° (ESE) 04:53:05 437.095 MHz 1200 baud AX-25 AFSK
Oscar 16 23 Oct 04:45:09 04:48:17 17° 299° (WNW) 04:51:25 437.025 USB, Beacon 2401.1428
AO-Echo 23 Oct 04:55:51 05:00:03 25° 295° (WNW) 05:04:16 ?
JAS-1B 23 Oct 04:56:49 05:02:09 28° 295° (WNW) 05:08:12 435.800 - 435.900 CW/SSB
Uribyol 2 23 Oct 05:00:06 05:04:26 27° 295° (WNW) 05:08:44 436.500 FM
Uosat F 23 Oct 05:00:47 05:04:07 18° 92° (E) 05:07:26 435.120 FM
PCSat 23 Oct 05:05:26 05:10:46 66° 116° (ESE) 05:16:09 145.825 MHz
ITAMSAT 1 23 Oct 05:05:39 05:09:55 26° 295° (WNW) 05:14:10 435.822 SSB
Gurwin Techsat 1B 23 Oct 05:13:03 05:18:00 40° 291° (WNW) 05:22:55 435.225 FM
JAS-2 23 Oct 05:18:57 05:21:35 12° 84° (E) 05:24:13 435.800 - 435.900 CW/SSB, 435.910 FM
TMSAT-1 23 Oct 05:25:37 05:30:34 41° 291° (WNW) 05:35:31 436.925 FM
AO-7 23 Oct 05:25:53 05:33:47 45° 100° (E) 05:41:39 29.400 - 29.500 MHz
RS-15 23 Oct 05:36:56 05:45:34 25° 21° (NNE) 05:54:21 29.354 - 29.394 USB, Beacon 29.352 USB
OPAL 23 Oct 05:39:23 05:44:31 69° 71° (ENE) 05:49:36 ?
AO-27 23 Oct 05:53:29 05:54:28 11° 303° (WNW) 05:55:27 436.795 MHz FM
Sapphire 23 Oct 06:26:43 06:31:33 32° 309° (NW) 06:36:25 437.095 MHz 1200 baud AX-25 AFSK
Uosat F 23 Oct 06:38:17 06:43:13 54° 288° (WNW) 06:48:07 435.120 FM
PCSat 23 Oct 06:50:33 06:54:40 22° 315° (NW) 06:58:48 145.825 MHz
JAS-2 23 Oct 07:00:04 07:07:48 67° 101° (E) 07:15:34 435.800 - 435.900 CW/SSB, 435.910 FM
AO-7 23 Oct 07:18:50 07:26:29 43° 299° (WNW) 07:34:08 29.400 - 29.500 MHz
STRAND 1 23 Oct 07:20:44 07:25:47 63° 73° (ENE) 07:30:52 ?
OPAL 23 Oct 07:21:05 07:23:50 14° 267° (W) 07:26:34 ?
Hamsat 23 Oct 07:29:31 07:33:44 84° 102° (ESE) 07:37:56 145.90 MHz
RS-15 23 Oct 07:49:45 08:00:48 62° 51° (NE) 08:12:16 29.354 - 29.394 USB, Beacon 29.352 USB
Saudisat 1A 23 Oct 08:27:20 08:31:19 36° 116° (ESE) 08:35:21 436.775 MHz
SO-67 23 Oct 08:28:22 08:31:44 49° 99° (E) 08:35:05 435.3500 MHz FM
JAS-2 23 Oct 08:45:55 08:52:13 29° 298° (WNW) 08:58:37 435.800 - 435.900 CW/SSB, 435.910 FM
STRAND 1 23 Oct 09:02:26 09:05:24 15° 269° (W) 09:08:23 ?
